Location: Spring Creek
(38.2870°N, 100.2160°W)
Time: 03:08:43
(UTC+00:00)

DELTA 2 R/B (1) - Pass Details

Date: 04 October 2021
Orbit: 790 x 802 km, 39.6° (Epoch: 18 October)

Event Time Altitude Azimuth Distance (km) Brightness Sun altitude
Exits shadow 11:35:00 14° 233° (SW) 2,082 5.2 -13.5°
Maximum altitude 11:39:41 57° 157° (SSE) 921 4.0 -12.6°
Drops below altitude 10° 11:45:06 10° 79° (E) 2,352 7.6 -11.5°
Sets 11:47:37 0° 76° (ENE) 3,284 8.7 -11.0°
